Location: Asheville, NC
(35.6000°N, 82.5500°W)
Time: 06:19:16
(UTC-05:00)

XW-2B - Pass Details

Date: 09 February 2018
Orbit: 510 x 531 km, 97.5° (Epoch: 25 February)

Event Time Altitude Azimuth Distance (km) Brightness Sun altitude
Rises 05:58:39 0° 24° (NNE) 2,620 ? -17.6°
Reaches altitude 10° 06:00:58 10° 36° (NE) 1,731 ? -17.2°
Maximum altitude 06:04:13 28° 97° (E) 977 ? -16.5°
Drops below altitude 10° 06:07:27 10° 158° (SSE) 1,725 ? -15.9°
Sets 06:09:45 0° 170° (S) 2,609 ? -15.4°
